Location: Newark
(7.0858°N, 171.3717°E)
Time: 08:33:56
(UTC+00:00)

S-56A Canister/Altair - Pass Details

Date: 05 December 2020
Orbit: 633 x 2499 km, 38.9° (Epoch: 27 January)

Event Time Altitude Azimuth Distance (km) Brightness Sun altitude
Rises 23:16:17 0° 183° (S) 5,140 12.2 55.9°
Reaches altitude 10° 23:24:47 10° 147° (SSE) 4,682 12.3 56.9°
Maximum altitude 23:26:55 11° 138° (SE) 4,746 12.3 57.1°
Drops below altitude 10° 23:29:07 10° 129° (SE) 4,882 12.2 57.3°
Sets 23:39:09 0° 95° (E) 6,154 12.3 58.3°
